Location: Klickitat County Star Party
(45.8642°N, 120.6771°W)
Time: 16:46:22
(UTC-07:00)

SO-50 - Pass Details

Date: 29 May 2019
Orbit: 586 x 700 km, 64.6° (Epoch: 17 June)

Event Time Altitude Azimuth Distance (km) Brightness Sun altitude
Rises 22:54:58 0° 325° (NW) 3,093 ? -16.7°
Reaches altitude 10° 22:59:26 10° 3° (N) 2,167 ? -17.1°
Maximum altitude 23:00:41 11° 17° (NNE) 2,105 ? -17.2°
Drops below altitude 10° 23:01:56 10° 32° (NNE) 2,159 ? -17.3°
Sets 23:06:19 0° 69° (ENE) 3,053 ? -17.6°
